Weather History for PAFB - March, 2014

Change the Weather History Date:

Tuesday, March 18, 2014

  Actual Average Record
Temperature  
Mean Temperature 14 °F -  
Max Temperature 24 °F 23 °F 50 °F (1998)
Min Temperature 5 °F 0 °F -25 °F (2009)
Degree Days  
Heating Degree Days 50    
Moisture  
Dew Point 6 °F    
Average Humidity 68    
Maximum Humidity 80    
Minimum Humidity 54    
Precipitation  
Precipitation 0.00 in - - ()
Snow  
Snow 0.00 in - - ()
Snow Depth 20.00 in    
Sea Level Pressure  
Sea Level Pressure 29.86 in    
Wind  
Wind Speed 1 mph (SE)    
Max Wind Speed 6 mph    
Max Gust Speed -    
Visibility 11 miles    
Events      
Averages and records for this station are not official NWS values.
T = Trace of Precipitation, MM = Missing Value Source: NWS Daily Summary

Daily Weather History Graph

Daily Weather History Graph

Search for Another Location

Airport or City:

Trip Planner

Search our weather history database for the weather conditions in past years. The results will help you decide how hot, cold, wet, or windy it might be!

Date:

Astronomy

Mar. 18, 2014 Rise Set
Actual Time 7:57 AM AKDT 8:00 PM AKDT
Civil Twilight 7:08 AM AKDT 8:50 PM AKDT
Nautical Twilight 6:09 AM AKDT 9:49 PM AKDT
Astronomical Twilight 5:02 AM AKDT 10:57 PM AKDT
Moon 11:32 PM AKDT (3/18) 8:02 AM AKDT (3/18)
Length of Visible Light 13h 41m
Length of Day
12h 03m
Waning Gibbous, 95% of the Moon is Illuminated
Mar 18
Waning Gibbous
Mar 23
Last Quarter
Mar 30
New
Apr 7
First Quarter
Apr 14
Full

Hourly Weather History & Observations

Time (AKDT) Temp. Windchill Dew Point Humidity Pressure Visibility Wind Dir Wind Speed Gust Speed Precip Events Conditions
12:56 AM 10.0 °F - 3.0 °F 73% 29.70 in 10.0 mi Calm Calm - N/A   Mostly Cloudy
1:56 AM 6.1 °F - -0.0 °F 76% 29.70 in 10.0 mi Calm Calm - N/A   Partly Cloudy
2:56 AM 7.0 °F - -0.0 °F 73% 29.72 in 10.0 mi Calm Calm - N/A   Overcast
3:56 AM 5.0 °F - -0.0 °F 80% 29.74 in 10.0 mi Calm Calm - N/A   Scattered Clouds
4:56 AM 8.1 °F - 1.0 °F 73% 29.75 in 10.0 mi Calm Calm - N/A   Overcast
5:56 AM 10.0 °F - 3.0 °F 73% 29.78 in 10.0 mi Calm Calm - N/A   Overcast
6:30 AM 8.6 °F - 3.2 °F 79% 29.75 in 10.0 mi Calm Calm - N/A   Overcast
6:55 AM 8.6 °F - 1.4 °F 73% 29.56 in 10.0 mi Calm Calm - N/A   Overcast
7:55 AM 8.6 °F 2.0 °F 1.4 °F 73% 29.81 in 10.0 mi East 3.5 mph - N/A   Overcast
8:55 AM 6.8 °F - 1.4 °F 79% 29.84 in 10.0 mi Calm Calm - N/A   Overcast
9:55 AM 12.2 °F 4.3 °F 3.2 °F 67% 29.86 in 10.0 mi East 4.6 mph - N/A   Overcast
10:55 AM 17.6 °F 12.3 °F 6.8 °F 63% 29.87 in 10.0 mi East 3.5 mph - N/A   Overcast
11:55 AM 19.4 °F - 6.8 °F 58% 29.89 in 10.0 mi Calm Calm - N/A   Overcast
12:55 PM 19.4 °F 11.5 °F 6.8 °F 58% 29.91 in 10.0 mi SSW 5.8 mph - N/A   Overcast
1:55 PM 21.2 °F - 8.6 °F 58% 29.92 in 10.0 mi Calm Calm - N/A   Overcast
2:55 PM 21.2 °F - 12.2 °F 68% 29.93 in 10.0 mi Calm Calm - N/A   Overcast
3:55 PM 24.8 °F 19.1 °F 12.2 °F 59% 29.94 in 13.0 mi WSW 4.6 mph - N/A   Mostly Cloudy
4:55 PM 24.8 °F - 10.4 °F 54% 29.95 in 13.0 mi Calm Calm - N/A   Mostly Cloudy
5:55 PM 24.8 °F - 12.2 °F 59% 29.96 in 13.0 mi Calm Calm - N/A   Mostly Cloudy
6:55 PM 24.8 °F - 14.0 °F 64% 29.97 in 13.0 mi Calm Calm - N/A   Mostly Cloudy
7:55 PM 24.8 °F - 12.2 °F 59% 29.99 in 13.0 mi Calm Calm - N/A   Mostly Cloudy
8:55 PM 24.8 °F - 10.4 °F 54% 30.01 in 13.0 mi Calm Calm - N/A   Mostly Cloudy
10:56 PM 14.0 °F - 8.1 °F 77% 30.06 in 10.0 mi Calm Calm - N/A   Overcast
11:56 PM 16.0 °F - 8.1 °F 71% 30.08 in 10.0 mi Calm Calm - N/A   Overcast